Location: Kapla
(46.2483°N, 15.0094°E)
Time: 18:30:48
(UTC+00:00)

SJ 16-02 - Pass Details

Date: 03 March 2021
Orbit: 605 x 617 km, 75.0° (Epoch: 16 April)

Event Time Altitude Azimuth Distance (km) Brightness Sun altitude
Rises 17:56:54 0° 355° (N) 2,883 4.9 -12.5°
Reaches altitude 10° 18:00:21 10° 23° (NNE) 1,976 3.8 -13.1°
Maximum altitude 18:02:25 13° 51° (NE) 1,782 3.3 -13.5°
Enters shadow 18:02:32 13° 53° (NE) 1,783 3.3 -13.5°
